Simultaneous Nadir Overpasses (SNOs) Predictions

Prediction of SNOs between FY3D and NOAA-19 Satellite Orbit:

Table of predicted SNOs for the next 14.0 days since TLE Epoch: 12/31/2022
Index Date (FY3D) Time (FY3D) Lat,Lon (FY3D) SZA (FY3D ) Date (NOAA-19) Time (NOAA-19) Lat,Lon (NOAA-19) SZA (NOAA-19 ) Distance(km) Time Diff (sec)
1 01/01/2023 08:58:53 -76.95,-147.15 79.80 01/01/2023 08:57:38 -76.96,-147.11 79.77 1.85 75
2 01/01/2023 09:49:39 76.93, 20.22 100.19 01/01/2023 09:48:32 76.96, 20.15 100.23 3.04 67
3 01/01/2023 10:40:25 -76.96,-172.58 79.79 01/01/2023 10:39:37 -76.98,-172.50 79.76 3.29 48
4 01/01/2023 11:31:11 76.94, -5.22 100.20 01/01/2023 11:30:31 76.98, -5.24 100.24 3.75 40
5 01/01/2023 12:21:57 -76.97, 161.98 79.78 01/01/2023 12:21:37 -76.96, 161.92 79.78 1.93 20
6 01/01/2023 13:12:43 76.96, -30.65 100.21 01/01/2023 13:12:31 76.96, -30.83 100.22 4.46 12
7 01/01/2023 14:03:29 -76.98, 136.55 79.77 01/01/2023 14:03:36 -76.99, 136.52 79.77 0.79 7
8 01/01/2023 14:54:16 77.01, -56.26 100.27 01/01/2023 14:54:30 76.98, -56.22 100.23 3.67 14
9 01/01/2023 15:45:01 -77.00, 111.12 79.76 01/01/2023 15:45:35 -77.01, 111.12 79.76 1.31 34
10 01/01/2023 16:35:48 77.03, -81.70 100.28 01/01/2023 16:36:29 77.00, -81.62 100.24 3.11 41
11 01/01/2023 17:26:33 -77.01, 85.69 79.75 01/01/2023 17:27:34 -77.03, 85.73 79.74 2.65 61
12 01/01/2023 18:17:20 77.04,-107.13 100.29 01/01/2023 18:18:28 77.03,-107.01 100.26 3.23 68



Historial Predications of SNOs between FY3D and NOAA-19
